This demonstration page uses our WeatherBlox Daily Observations layout. Learn more.

39.29038, -76.61219

Hourly Observations for September 26, 2019

Temp ( °F °C ) Dew Point ( °F °C ) Humidity (%) Winds ( mph kmh ) Pressure ( in mb ) Visibility ( mi km ) Precip ( " mm )
12:54 am 00:54 undefined 68 20 56 13.3 65 65 undefined N/A 29.88 1012 N/A 0 0
1:54 am 01:54 undefined 67 19.4 56 13.3 68 68 undefined N/A 29.87 1012 N/A 0 0
2:54 am 02:54 undefined 67 19.4 56 13.3 68 68 undefined N/A 29.85 1011 N/A 0 0
3:54 am 03:54 undefined 66 18.9 57 13.9 73 73 undefined N/A 29.83 1010 N/A 0 0
4:54 am 04:54 undefined 66 18.9 58 14.4 75 75 undefined N/A 29.83 1010 N/A 0 0
5:54 am 05:54 undefined 66 18.9 58 14.4 75 75 undefined N/A 29.82 1010 N/A 0 0
6:54 am 06:54 undefined 65 18.3 58 14.4 78 78 undefined N/A 29.82 1010 N/A 0 0
7:54 am 07:54 undefined 66 18.9 59 15 78 78 undefined N/A 29.82 1010 N/A 0 0
8:54 am 08:54 undefined 70 21.1 59 15 68 68 undefined N/A 29.85 1011 N/A 0 0
9:54 am 09:54 undefined 74 23.3 60 15.6 62 62 undefined N/A 29.82 1010 N/A 0 0
10:54 am 10:54 undefined 78 25.6 61 16.1 56 56 undefined N/A 29.81 1009 N/A 0 0
11:54 am 11:54 undefined 82 27.8 62 16.7 51 51 undefined N/A 29.79 1009 N/A 0 0
12:54 pm 12:54 undefined 83 28.3 63 17.2 51 51 undefined N/A 29.78 1009 N/A 0 0
1:54 pm 13:54 undefined 85 29.4 63 17.2 48 48 undefined N/A 29.76 1008 N/A 0 0
2:54 pm 14:54 undefined 86 30 59 15 40 40 undefined N/A 29.75 1007 N/A 0 0
3:54 pm 15:54 undefined 82 27.8 60 15.6 47 47 undefined N/A 29.78 1008 N/A 0 0
4:54 pm 16:54 undefined 82 27.8 60 15.6 47 47 undefined N/A 29.8 1009 N/A 0 0
5:54 pm 17:54 undefined 81 27.2 60 15.6 49 49 undefined N/A 29.81 1010 N/A 0 0
6:54 pm 18:54 undefined 80 26.7 59 15 49 49 undefined N/A 29.83 1010 N/A 0 0
7:54 pm 19:54 undefined 78 25.6 60 15.6 54 54 undefined N/A 29.86 1011 N/A 0 0
8:54 pm 20:54 undefined 76 24.4 61 16.1 60 60 undefined N/A 29.9 1013 N/A 0 0
9:54 pm 21:54 undefined 74 23.3 62 16.7 67 67 undefined N/A 29.93 1014 N/A 0 0
10:54 pm 22:54 undefined 72 22.2 61 16.1 68 68 undefined N/A 29.95 1014 N/A 0 0
11:54 pm 23:54 undefined 71 21.7 61 16.1 71 71 undefined N/A 29.97 1015 N/A 0 0

Powered by AerisWeather